Location: Cincinnati Observatory Center
(39.1389°N, 84.4225°W)
Time: 04:15:51
(UTC-04:00)

Hubble Space Telescope - Visible Passes

Search period start: 02 May 2016 00:00
Search period end: 12 May 2016 00:00
Orbit: 539 x 543 km, 28.5° (Epoch: 01 May)

Date Brightness Start Highest point End Pass type
(mag) Time Alt. Az. Time Alt. Az. Time Alt. Az.
02 May 2.6 05:08:42 16° S 05:09:11 16° S 05:11:47 10° SE visible
03 May 2.6 04:59:30 17° S 04:59:30 17° S 05:02:12 10° SE visible
04 May 2.6 04:50:20 18° SSE 04:50:20 18° SSE 04:52:35 10° SE visible
05 May 2.7 04:41:14 16° SSE 04:41:14 16° SSE 04:42:54 10° SE visible
06 May 3.0 04:32:13 14° SSE 04:32:13 14° SSE 04:33:10 10° SE visible
07 May 3.3 04:23:19 10° SE 04:23:19 10° SE 04:23:23 10° SE visible
07 May 2.9 05:59:54 10° SSW 06:01:05 11° SSW 06:02:15 10° S visible
